Date String (YYYY-MM-DD hh:mm:ss) UTC,Instrument flags,Ambient pressure (hPa),Sample flow (lpm),Bypass flow (lpm),Sample temperature (°C),Ambient temperature (°C),ASC tube jacket temperature (°C),LED temperature (°C),Box temperature (°C),Sample RH (%),Span deviation,Mass concentration (μg/m³),Mass concentration (μg/m³),Mass concentration (μg/m³)
DateTimeUTC,F1_M11,P_M11,Q1_M11,Q2_M11,T1_M11,T2_M11,T3_M11,T4_M11,T5_M11,U1_M11,ZSPAN_M11,X0_M11,X2_M11,X1_M11
2022-03-27 01:00:00,,0822.5,5.01,0.00,29.8,28.7,00.0,38.6,31.6,08.3,0000.0,0007.76,0002.88,0001.35
2022-03-27 01:01:00,,0822.5,5.01,0.00,29.8,28.8,00.0,38.6,31.6,08.3,0000.0,0007.76,0002.86,0001.34
2022-03-27 01:02:00,,0822.5,4.99,0.00,29.8,28.9,00.0,38.7,31.7,08.2,0000.0,0007.93,0002.94,0001.34
2022-03-27 01:03:00,,0822.6,4.99,0.00,29.9,28.9,00.0,38.7,31.7,08.2,0000.0,0008.08,0003.03,0001.34
2022-03-27 01:04:00,,0822.5,5.01,0.00,29.8,27.5,00.0,38.7,31.4,08.1,0000.0,0007.93,0003.12,0001.38
2022-03-27 01:05:00,,0822.5,5.01,0.00,29.7,26.0,00.0,38.7,31.1,08.1,0000.0,0007.73,0003.15,0001.40
2022-03-27 01:06:00,,0822.5,5.00,0.00,29.6,26.1,00.0,38.7,31.1,08.3,0000.0,0007.93,0003.18,0001.39
2022-03-27 01:07:00,,0822.6,4.98,0.00,29.6,26.5,00.0,38.6,31.1,08.4,0000.0,0008.05,0003.20,0001.39
2022-03-27 01:08:00,,0822.5,5.00,0.00,29.5,26.9,00.0,38.6,31.2,08.4,0000.0,0007.86,0003.22,0001.40
2022-03-27 01:09:00,,0822.5,5.01,0.00,29.6,27.3,00.0,38.6,31.2,08.4,0000.0,0007.81,0003.22,0001.41
2022-03-27 01:10:00,,0822.5,5.00,0.00,29.6,27.6,00.0,38.5,31.3,08.4,0000.0,0007.92,0003.23,0001.40
2022-03-27 01:11:00,,0822.6,5.00,0.00,29.6,27.9,00.0,38.5,31.4,08.4,0000.0,0008.00,0003.26,0001.41
2022-03-27 01:12:00,,0822.6,4.98,0.00,29.6,28.1,00.0,38.6,31.4,08.3,0000.0,0008.16,0003.28,0001.41
2022-03-27 01:13:00,,0822.5,5.01,0.00,29.7,28.2,00.0,38.6,31.4,08.4,0000.0,0008.43,0003.33,0001.41
2022-03-27 01:14:00,,0822.5,5.01,0.00,29.7,28.4,00.0,38.6,31.5,08.4,0000.0,0008.28,0003.31,0001.42
2022-03-27 01:15:00,,0822.5,4.99,0.00,29.7,28.5,00.0,38.6,31.5,08.3,0000.0,0008.29,0003.30,0001.40
2022-03-27 01:16:00,,0822.5,5.00,0.00,29.7,28.6,00.0,38.6,31.5,08.1,0000.0,0008.34,0003.30,0001.39
2022-03-27 01:17:00,,0822.5,5.00,0.00,29.8,28.7,00.0,38.6,31.6,08.3,0000.0,0008.24,0003.30,0001.39
2022-03-27 01:18:00,,0822.5,5.00,0.00,29.8,28.8,00.0,38.6,31.6,08.3,0000.0,0008.10,0003.27,0001.38
2022-03-27 01:19:00,,0822.5,5.01,0.00,29.8,28.8,00.0,38.7,31.7,08.3,0000.0,0008.62,0003.28,0001.37
2022-03-27 01:20:00,,0822.5,5.00,0.00,29.9,28.9,00.0,38.7,31.7,08.3,0000.0,0008.83,0003.28,0001.37
2022-03-27 01:21:00,,0822.5,5.00,0.00,29.9,28.9,00.0,38.7,31.7,08.2,0000.0,0008.82,0003.33,0001.38
2022-03-27 01:22:00,,0822.5,5.01,0.00,29.9,27.8,00.0,38.7,31.5,08.2,0000.0,0008.78,0003.33,0001.40
2022-03-27 01:23:00,,0822.5,5.00,0.00,29.7,26.0,00.0,38.7,31.1,08.3,0000.0,0008.70,0003.32,0001.42
2022-03-27 01:24:00,,0822.5,4.99,0.00,29.7,26.0,00.0,38.7,31.1,08.4,0000.0,0008.40,0003.27,0001.42
2022-03-27 01:25:00,,0822.6,5.00,0.00,29.6,26.4,00.0,38.6,31.1,08.4,0000.0,0008.41,0003.28,0001.43
2022-03-27 01:26:00,,0822.5,5.01,0.00,29.5,26.8,00.0,38.6,31.2,08.3,0000.0,0008.45,0003.31,0001.43
2022-03-27 01:27:00,,0822.5,4.98,0.00,29.6,27.1,00.0,38.6,31.2,08.3,0000.0,0008.67,0003.32,0001.44
2022-03-27 01:28:00,,0822.5,5.01,0.00,29.6,27.5,00.0,38.5,31.3,08.3,0000.0,0008.61,0003.26,0001.45
2022-03-27 01:29:00,,0822.5,5.00,0.00,29.6,27.7,00.0,38.5,31.3,08.3,0000.0,0008.81,0003.31,0001.49
2022-03-27 01:30:00,,0822.5,5.00,0.00,29.6,27.9,00.0,38.5,31.3,08.3,0000.0,0008.95,0003.30,0001.51
2022-03-27 01:31:00,,0822.5,4.99,0.00,29.6,28.1,00.0,38.5,31.4,08.3,0000.0,0008.54,0003.28,0001.53
2022-03-27 01:32:00,,0822.5,5.00,0.00,29.7,28.3,00.0,38.5,31.4,08.3,0000.0,0008.52,0003.25,0001.54
2022-03-27 01:33:00,,0822.5,5.02,0.00,29.7,28.4,00.0,38.6,31.5,08.4,0000.0,0008.48,0003.25,0001.57
2022-03-27 01:34:00,,0822.5,4.99,0.00,29.7,28.5,00.0,38.6,31.5,08.4,0000.0,0008.55,0003.29,0001.59
2022-03-27 01:35:00,,0822.5,5.00,0.00,29.8,28.6,00.0,38.6,31.6,08.3,0000.0,0008.58,0003.32,0001.59
2022-03-27 01:36:00,,0822.5,5.00,0.00,29.8,28.7,00.0,38.6,31.6,08.1,0000.0,0008.75,0003.36,0001.60
2022-03-27 01:37:00,,0822.6,4.99,0.00,29.8,28.8,00.0,38.6,31.6,08.1,0000.0,0008.69,0003.30,0001.61
2022-03-27 01:38:00,,0822.6,5.00,0.00,29.8,28.9,00.0,38.6,31.6,08.2,0000.0,0008.45,0003.29,0001.63
2022-03-27 01:39:00,,0822.6,5.01,0.00,29.9,29.0,00.0,38.7,31.7,08.1,0000.0,0008.29,0003.29,0001.64
2022-03-27 01:40:00,,0822.6,5.00,0.00,29.9,29.0,00.0,38.7,31.7,08.0,0000.0,0008.26,0003.27,0001.64
2022-03-27 01:41:00,,0822.6,5.00,0.00,29.9,29.0,00.0,38.7,31.7,08.2,0000.0,0007.95,0003.29,0001.64
2022-03-27 01:42:00,,0822.6,5.01,0.00,29.9,27.2,00.0,38.7,31.4,08.3,0000.0,0007.58,0003.30,0001.64
2022-03-27 01:43:00,,0822.6,5.00,0.00,29.7,25.9,00.0,38.7,31.1,08.4,0000.0,0007.68,0003.35,0001.65
2022-03-27 01:44:00,,0822.6,5.01,0.00,29.6,26.0,00.0,38.7,31.1,08.4,0000.0,0007.69,0003.32,0001.64
2022-03-27 01:45:00,,0822.6,5.01,0.00,29.6,26.4,00.0,38.6,31.1,08.3,0000.0,0007.89,0003.32,0001.62
2022-03-27 01:46:00,,0822.6,4.98,0.00,29.6,26.8,00.0,38.6,31.2,08.4,0000.0,0008.07,0003.31,0001.64
2022-03-27 01:47:00,,0822.6,5.01,0.00,29.6,27.2,00.0,38.6,31.2,08.4,0000.0,0008.46,0003.29,0001.64
2022-03-27 01:48:00,,0822.6,4.99,0.00,29.6,27.5,00.0,38.6,31.3,08.5,0000.0,0008.51,0003.31,0001.64
2022-03-27 01:49:00,,0822.6,5.00,0.00,29.6,27.8,00.0,38.6,31.4,08.5,0000.0,0008.57,0003.32,0001.62
2022-03-27 01:50:00,,0822.7,5.02,0.00,29.6,28.0,00.0,38.6,31.4,08.4,0000.0,0008.65,0003.35,0001.63
2022-03-27 01:51:00,,0822.6,4.99,0.00,29.6,28.2,00.0,38.6,31.4,08.5,0000.0,0008.59,0003.36,0001.63
2022-03-27 01:52:00,,0822.7,5.02,0.00,29.7,28.4,00.0,38.6,31.5,08.4,0000.0,0008.61,0003.38,0001.66
2022-03-27 01:53:00,,0822.7,4.99,0.00,29.7,28.5,00.0,38.6,31.5,08.4,0000.0,0008.61,0003.39,0001.66
2022-03-27 01:54:00,,0822.8,5.01,0.00,29.7,28.6,00.0,38.6,31.5,09.2,0000.0,0008.97,0003.40,0001.67
2022-03-27 01:55:00,,0822.7,5.00,0.00,29.8,28.7,00.0,38.6,31.5,09.6,0000.0,0009.19,0003.46,0001.72
2022-03-27 01:56:00,,0822.7,4.99,0.00,29.8,28.8,00.0,38.6,31.6,09.5,0000.0,0009.39,0003.57,0001.76
2022-03-27 01:57:00,,0822.8,4.99,0.00,29.8,28.9,00.0,38.6,31.6,10.2,0000.0,0010.48,0003.74,0001.85
2022-03-27 01:58:00,,0822.9,5.01,0.00,29.8,28.9,00.0,38.7,31.6,10.4,0000.0,0012.53,0003.90,0001.97
2022-03-27 01:59:00,,0822.9,5.01,0.00,29.9,28.9,00.0,38.7,31.7,10.3,0000.0,0014.06,0003.99,0002.07
